Hurlburt Field, FL

9:01 PM CDT on March 24, 2017 (GMT -0500)
Hurlburt

Weather History for KHRT - February, 2013

Change the Weather History Date:

Saturday, February 9, 2013

  Actual Average Record
Temperature  
Mean Temperature 52 °F -  
Max Temperature 59 °F 61 °F 75 °F (1999)
Min Temperature 44 °F 43 °F 33 °F (1998)
Degree Days  
Heating Degree Days 14    
Growing Degree Days 2 (Base 50)    
Moisture  
Dew Point 51 °F    
Average Humidity 87    
Maximum Humidity 100    
Minimum Humidity 65    
Precipitation  
Precipitation 0.00 in - - ()
Sea Level Pressure  
Sea Level Pressure 30.19 in    
Wind  
Wind Speed 6 mph (East)    
Max Wind Speed 10 mph    
Max Gust Speed -    
Visibility 10 miles    
Events Rain    
Averages and records for this station are not official NWS values.
T = Trace of Precipitation, MM = Missing Value Source: NWS Daily Summary

Daily Weather History Graph

Daily Weather History Graph

Search for Another Location

Airport or City:

Trip Planner

Search our weather history database for the weather conditions in past years. The results will help you decide how hot, cold, wet, or windy it might be!

Date:

Astronomy

Feb. 09, 2013 Rise Set
Actual Time 6:31 AM CST 5:30 PM CST
Civil Twilight 6:07 AM CST 5:55 PM CST
Nautical Twilight 5:38 AM CST 6:23 PM CST
Astronomical Twilight 5:10 AM CST 6:51 PM CST
Moon 5:44 AM CST (2/9) 5:10 PM CST (2/9)
Length of Visible Light 11h 48m
Length of Day
10h 58m
Waning Crescent, 0% of the Moon is Illuminated
Feb 9
Waning Crescent
Feb 10
New
Feb 17
First Quarter
Feb 25
Full
Mar 4
Last Quarter

Hourly Weather History & Observations

Time (CST) Temp. Windchill Dew Point Humidity Pressure Visibility Wind Dir Wind Speed Gust Speed Precip Events Conditions
12:58 AM 53.6 °F - 53.6 °F 100% 30.16 in 10.0 mi NE 3.5 mph - N/A   Overcast
1:54 AM 53.6 °F - 53.6 °F 100% 30.16 in 10.0 mi Variable 3.5 mph - N/A   Overcast
2:54 AM 53.6 °F - 53.6 °F 100% 30.17 in 10.0 mi NE 4.6 mph - N/A   Mostly Cloudy
3:54 AM 51.8 °F - 51.8 °F 100% 30.18 in 10.0 mi NNE 10.4 mph - N/A   Overcast
4:35 AM 50.0 °F - 50.0 °F 100% 30.18 in 10.0 mi NNE 9.2 mph - N/A   Scattered Clouds
4:54 AM 48.2 °F - 48.2 °F 100% 30.19 in 10.0 mi NNE 9.2 mph - N/A   Partly Cloudy
5:54 AM 46.4 °F 41.9 °F 46.4 °F 100% 30.19 in 10.0 mi NNE 9.2 mph - N/A   Clear
6:54 AM 44.6 °F 40.2 °F 44.6 °F 100% 30.22 in 10.0 mi NNE 8.1 mph - N/A   Clear
7:54 AM 48.2 °F - 48.2 °F 100% 30.23 in 10.0 mi NE 6.9 mph - N/A   Clear
8:54 AM 51.8 °F - 46.4 °F 82% 30.25 in 10.0 mi NE 6.9 mph - N/A   Clear
9:44 AM 55.4 °F - 46.4 °F 72% 30.24 in 10.0 mi Variable 5.8 mph - N/A   Light Drizzle
9:53 AM 55.4 °F - 46.4 °F 72% 30.25 in 10.0 mi NE 5.8 mph - N/A   Clear
9:54 AM 55.4 °F - 46.4 °F 72% 30.25 in 10.0 mi NE 5.8 mph - N/A   Clear
9:56 AM 55.4 °F - 46.4 °F 72% 30.25 in 10.0 mi NE 6.9 mph - N/A   Light Drizzle
10:58 AM 58.6 °F - 47.1 °F 66% 30.26 in 9.0 mi SSE 8.1 mph - 0.00 in Rain Light Rain
10:59 AM 59.0 °F - 48.2 °F 67% 30.24 in 10.0 mi SSE 8.1 mph - N/A   Clear
11:45 AM 59.0 °F - 48.2 °F 67% 30.23 in 10.0 mi SE 9.2 mph - N/A Rain Light Rain
11:53 AM 59.0 °F - 48.2 °F 67% 30.22 in 10.0 mi SSE 10.4 mph - N/A   Clear
11:58 AM 59.0 °F - 47.3 °F 65% 30.22 in 10.0 mi SSE 9.2 mph - 0.00 in   Clear
12:58 PM 59.4 °F - 49.3 °F 69% 30.21 in 10.0 mi South 9.2 mph - N/A   Clear
1:58 PM 58.8 °F - 48.7 °F 69% 30.19 in 10.0 mi South 6.9 mph - N/A   Clear
2:58 PM 59.5 °F - 50.4 °F 72% 30.18 in 10.0 mi South 6.9 mph - N/A   Clear
3:32 PM 59.0 °F - 51.8 °F 77% 30.18 in 10.0 mi SE 6.9 mph - N/A   Light Drizzle
3:40 PM 59.0 °F - 51.8 °F 77% 30.18 in 10.0 mi SSE 5.8 mph - N/A   Partly Cloudy
3:58 PM 59.4 °F - 53.2 °F 80% 30.18 in 10.0 mi South 8.1 mph - 0.00 in   Clear
4:34 PM 59.0 °F - 53.6 °F 82% 30.17 in 10.0 mi SSE 4.6 mph - N/A   Light Drizzle
4:50 PM 59.0 °F - 53.6 °F 82% 30.17 in 10.0 mi SE 6.9 mph - N/A   Clear
4:58 PM 58.1 °F - 54.5 °F 88% 30.16 in 10.0 mi SE 4.6 mph - 0.00 in   Clear
4:59 PM 57.2 °F - 55.4 °F 94% 30.16 in 10.0 mi ESE 6.9 mph - N/A Rain Light Rain
5:09 PM 57.2 °F - 55.4 °F 94% 30.16 in 10.0 mi ESE 5.8 mph - N/A   Clear
5:26 PM 57.2 °F - 55.4 °F 94% 30.16 in 10.0 mi SSE 5.8 mph - N/A Rain Light Rain
5:46 PM 57.2 °F - 55.4 °F 94% 30.16 in 10.0 mi SE 5.8 mph - N/A   Clear
5:58 PM 56.5 °F - 55.4 °F 96% 30.15 in 10.0 mi ESE 4.6 mph - 0.00 in   Clear
6:58 PM 56.3 °F - 56.3 °F 100% 30.16 in 10.0 mi ESE 2.3 mph - N/A   Clear
7:05 PM 57.2 °F - 57.2 °F 100% 30.16 in 10.0 mi ESE 3.5 mph - N/A Rain Light Rain
7:15 PM 55.4 °F - 55.4 °F 100% 30.16 in 10.0 mi ESE 3.5 mph - N/A   Clear
7:58 PM 51.6 °F - 51.6 °F 100% 30.16 in 10.0 mi East 3.5 mph - 0.00 in   Clear
8:58 PM 54.3 °F - 54.3 °F 100% 30.17 in 10.0 mi ENE 3.5 mph - N/A   Clear
9:58 PM 48.9 °F - 48.9 °F 100% 30.17 in 10.0 mi NNE 3.5 mph - N/A   Clear
10:58 PM 48.7 °F - 48.7 °F 100% 30.18 in 10.0 mi NE 3.5 mph - N/A   Clear
11:58 PM 51.3 °F - 51.3 °F 100% 30.16 in 10.0 mi ENE 5.8 mph - N/A   Clear